Regional Weather Roundup
Issued by NWS

Home | Current Version | Previous Version | Graphics & Text | Print | Product List | Glossary On
Versions: 1 2 3 4 5 6 7 8 9 10 11 12 13 14 15 16 17 18 19 20 21 22 23 24 25 26 27 28 29 30 31 32 33 34 35 36 37 38 39 40 41 42 43 44 45 46 47 48 49 50
000
ASUS43 KTOP 231959
RWRKS

WEATHER ROUNDUP FOR KANSAS
NATIONAL WEATHER SERVICE GOODLAND KS
200 PM CST THU FEB 23 2017

NOTE:  "FAIR" INDICATES FEW OR NO CLOUDS BELOW 12,000 FEET WITH NO
SIGNIFICANT WEATHER AND/OR OBSTRUCTIONS TO VISIBILITY.

KSZ001>006-013>018-027>032-041>047-232100-
NORTHWEST KANSAS

CITY           SKY/WX    TMP DP  RH WIND       PRES   REMARKS
GOODLAND       FRZ RAIN  31  31 100 NE17      29.50S WCI  19
HAYS           SUNNY     57  39  51 E17G23    29.42F
HILL CITY      CLOUDY    39  34  82 NE16G25   29.52S WCI  30
RUSSELL        SUNNY     57  40  52 NE13G23   29.41F
$$

KSZ061>065-074>080-084>089-232100-
SOUTHWEST KANSAS

CITY           SKY/WX    TMP DP  RH WIND       PRES   REMARKS
DODGE CITY     SUNNY     75  35  23 S14       29.31F
ELKHART          N/A     71  18  13 MISG        N/A
GARDEN CITY    SUNNY     76  18  11 SW30G43   29.29F
GREAT BEND     SUNNY     65  43  44 E16       29.38F
LIBERAL        SUNNY     75  25  15 SW31G44   29.35F
$$

KSZ066>073-081>083-090>101-232100-
SOUTHEAST KANSAS

CITY           SKY/WX    TMP DP  RH WIND       PRES   REMARKS
CHANUTE        MOSUNNY   76  49  38 S15       29.43F
COFFEYVILLE    CLOUDY    77  52  41 S14G23    29.41F
HUTCHINSON     SUNNY     69  48  47 SE12G20   29.37F
MEDICINE LODGE   N/A     72  42  34 S12G20    29.34F
NEWTON         CLOUDY    67  52  58 SE20      29.38F
PARSONS        MOSUNNY   77  49  37 SW14      29.42F
WICHITA INTL   PTSUNNY   69  48  47 SE13      29.36F
WICHITA JABRA  PTSUNNY   68  51  54 SE15      29.37F
WINFIELD       MOSUNNY   74  48  39 S12       29.40F
$$

KSZ007>012-019>026-033>040-048>060-102>105-232100-
NORTHEAST KANSAS

CITY           SKY/WX    TMP DP  RH WIND       PRES   REMARKS
CONCORDIA      PTSUNNY   48  37  65 E16G24    29.46F
EMPORIA        PTSUNNY   67  51  56 SE17G23   29.40F
LAWRENCE       CLOUDY    56  46  69 E10       29.49F
MANHATTAN      CLOUDY    60  44  55 NE14      29.45F
OLATHE IND     CLOUDY    57  46  66 E13       29.47F
OLATHE EXE     PTSUNNY   55  46  71 E10G21    29.47F
SALINA         SUNNY     65  45  48 NE9       29.41F
TOPEKA BILLARD CLOUDY    59  47  64 E13       29.45F
TOPEKA FORBES  CLOUDY    60  46  59 E14       29.45F
$$




USA.gov is the U.S. government's official web portal to all federal, state and local government web resources and services.